Time,TemperatureF,DewpointF,PressureIn,WindDirection,WindDirectionDegrees,WindSpeedMPH,WindSpeedGustMPH,Humidity,HourlyPrecipIn,Conditions,Clouds,dailyrainin,SolarRadiationWatts/m^2,SoftwareType,DateUTC
2013-08-21 00:00:00,70.0,69.4,30.01,ENE,63,2.0,2.0,98,0.00,,,0.00,0,Wunderground v.1.15,2013-08-21 10:00:00,
2013-08-21 00:10:00,70.0,69.4,30.01,ENE,63,1.0,2.0,98,0.00,,,0.00,0,Wunderground v.1.15,2013-08-21 10:10:00,
2013-08-21 00:15:00,69.9,69.0,30.01,ENE,63,2.0,3.0,97,0.00,,,0.00,0,Wunderground v.1.15,2013-08-21 10:15:00,
2013-08-21 00:20:00,69.9,69.0,30.01,ENE,63,2.0,2.0,97,0.00,,,0.00,0,Wunderground v.1.15,2013-08-21 10:20:00,
2013-08-21 00:25:00,70.0,69.1,30.00,ENE,62,2.0,3.0,97,0.00,,,0.00,0,Wunderground v.1.15,2013-08-21 10:25:00,
2013-08-21 00:30:00,70.3,69.1,30.00,NE,47,3.0,3.0,96,0.00,,,0.00,0,Wunderground v.1.15,2013-08-21 10:30:00,
2013-08-21 00:35:00,70.5,69.3,30.00,NE,47,2.0,3.0,96,0.00,,,0.00,0,Wunderground v.1.15,2013-08-21 10:35:00,
2013-08-21 00:45:00,70.7,69.2,30.00,NE,47,1.0,3.0,95,0.00,,,0.00,0,Wunderground v.1.15,2013-08-21 10:45:00,
2013-08-21 00:50:00,70.8,69.3,30.00,NE,47,1.0,3.0,95,0.00,,,0.00,0,Wunderground v.1.15,2013-08-21 10:50:00,
2013-08-21 00:55:00,70.8,69.3,30.00,NE,47,2.0,3.0,95,0.00,,,0.00,0,Wunderground v.1.15,2013-08-21 10:55:00,
2013-08-21 01:00:00,70.8,69.0,30.00,NE,47,2.0,2.0,94,0.00,,,0.00,0,Wunderground v.1.15,2013-08-21 11:00:00,
2013-08-21 01:10:00,70.9,69.1,30.00,NE,47,1.0,2.0,94,0.00,,,0.00,0,Wunderground v.1.15,2013-08-21 11:10:00,
2013-08-21 01:15:00,71.0,69.2,30.00,NE,47,1.0,2.0,94,0.00,,,0.00,0,Wunderground v.1.15,2013-08-21 11:15:00,
2013-08-21 01:20:00,70.9,69.1,30.00,NE,47,2.0,2.0,94,0.00,,,0.00,0,Wunderground v.1.15,2013-08-21 11:20:00,
2013-08-21 01:25:00,71.0,69.2,29.99,NE,47,2.0,2.0,94,0.00,,,0.00,0,Wunderground v.1.15,2013-08-21 11:25:00,
2013-08-21 01:35:00,70.8,68.7,29.99,NE,47,0.0,1.0,93,0.00,,,0.00,0,Wunderground v.1.15,2013-08-21 11:35:00,
2013-08-21 01:40:00,70.7,68.6,29.99,NE,47,0.0,0.0,93,0.00,,,0.00,0,Wunderground v.1.15,2013-08-21 11:40:00,
2013-08-21 01:45:00,70.7,68.6,29.99,NE,47,0.0,0.0,93,0.00,,,0.00,0,Wunderground v.1.15,2013-08-21 11:45:00,
2013-08-21 01:50:00,70.5,68.7,29.98,NE,47,0.0,0.0,94,0.00,,,0.00,0,Wunderground v.1.15,2013-08-21 11:50:00,
2013-08-21 01:55:00,70.2,68.4,29.98,NE,47,0.0,0.0,94,0.00,,,0.00,0,Wunderground v.1.15,2013-08-21 11:55:00,
2013-08-21 02:00:00,70.0,68.2,29.98,NE,47,0.0,0.0,94,0.00,,,0.00,0,Wunderground v.1.15,2013-08-21 12:00:00,
2013-08-21 02:10:00,69.3,67.8,29.98,NE,47,0.0,0.0,95,0.00,,,0.00,0,Wunderground v.1.15,2013-08-21 12:10:00,
2013-08-21 02:15:00,69.1,67.9,29.98,NE,42,1.0,3.0,96,0.00,,,0.00,0,Wunderground v.1.15,2013-08-21 12:15:00,
2013-08-21 02:20:00,69.1,67.9,29.98,NE,42,1.0,1.0,96,0.00,,,0.00,0,Wunderground v.1.15,2013-08-21 12:20:00,
2013-08-21 02:25:00,69.0,67.8,29.99,NE,42,1.0,1.0,96,0.00,,,0.00,0,Wunderground v.1.15,2013-08-21 12:25:00,
2013-08-21 02:30:00,68.7,67.5,29.99,NE,42,0.0,0.0,96,0.00,,,0.00,0,Wunderground v.1.15,2013-08-21 12:30:00,
2013-08-21 02:35:00,68.6,67.4,29.99,NE,42,0.0,0.0,96,0.00,,,0.00,0,Wunderground v.1.15,2013-08-21 12:35:00,
2013-08-21 02:45:00,68.5,67.6,29.99,NE,42,1.0,2.0,97,0.00,,,0.00,0,Wunderground v.1.15,2013-08-21 12:45:00,
2013-08-21 02:50:00,68.7,67.8,29.98,NE,42,2.0,2.0,97,0.00,,,0.00,0,Wunderground v.1.15,2013-08-21 12:50:00,
2013-08-21 02:55:00,68.7,67.5,29.98,NE,42,1.0,2.0,96,0.00,,,0.00,0,Wunderground v.1.15,2013-08-21 12:55:00,
2013-08-21 03:00:00,68.7,67.8,29.98,NE,42,0.0,0.0,97,0.00,,,0.00,0,Wunderground v.1.15,2013-08-21 13:00:00,
2013-08-21 03:10:00,68.7,67.8,29.98,NE,42,0.0,0.0,97,0.00,,,0.00,0,Wunderground v.1.15,2013-08-21 13:10:00,
2013-08-21 03:15:00,68.6,67.7,29.98,NE,42,0.0,0.0,97,0.00,,,0.00,0,Wunderground v.1.15,2013-08-21 13:15:00,
2013-08-21 03:20:00,68.6,67.7,29.98,NE,42,0.0,0.0,97,0.00,,,0.00,0,Wunderground v.1.15,2013-08-21 13:20:00,
2013-08-21 03:25:00,68.7,67.8,29.99,NE,42,0.0,0.0,97,0.00,,,0.00,0,Wunderground v.1.15,2013-08-21 13:25:00,
2013-08-21 03:30:00,68.7,67.8,29.98,NE,42,0.0,0.0,97,0.00,,,0.00,0,Wunderground v.1.15,2013-08-21 13:30:00,
2013-08-21 03:35:00,68.9,68.0,29.98,NE,42,0.0,0.0,97,0.00,,,0.00,0,Wunderground v.1.15,2013-08-21 13:35:00,
2013-08-21 03:45:00,69.1,68.2,29.98,NE,42,0.0,0.0,97,0.00,,,0.00,0,Wunderground v.1.15,2013-08-21 13:45:00,
2013-08-21 03:50:00,69.1,68.2,29.98,NE,42,0.0,0.0,97,0.00,,,0.00,0,Wunderground v.1.15,2013-08-21 13:50:00,
2013-08-21 03:55:00,69.2,68.3,29.99,NE,42,0.0,0.0,97,0.00,,,0.00,0,Wunderground v.1.15,2013-08-21 13:55:00,
2013-08-21 04:00:00,69.3,68.1,29.99,NE,42,0.0,0.0,96,0.00,,,0.00,0,Wunderground v.1.15,2013-08-21 14:00:00,
2013-08-21 04:10:00,69.6,68.4,29.99,NE,42,0.0,0.0,96,0.00,,,0.00,0,Wunderground v.1.15,2013-08-21 14:10:00,
2013-08-21 04:15:00,69.9,68.4,29.99,NE,42,0.0,0.0,95,0.00,,,0.00,0,Wunderground v.1.15,2013-08-21 14:15:00,
2013-08-21 04:20:00,70.0,68.5,29.99,NE,42,0.0,0.0,95,0.00,,,0.00,0,Wunderground v.1.15,2013-08-21 14:20:00,
2013-08-21 04:25:00,70.0,68.5,29.99,NE,42,0.0,0.0,95,0.00,,,0.00,0,Wunderground v.1.15,2013-08-21 14:25:00,
2013-08-21 04:30:00,70.1,68.6,29.99,NE,42,0.0,0.0,95,0.00,,,0.00,0,Wunderground v.1.15,2013-08-21 14:30:00,
2013-08-21 04:35:00,70.0,68.5,29.99,NE,42,0.0,0.0,95,0.00,,,0.00,0,Wunderground v.1.15,2013-08-21 14:35:00,
2013-08-21 04:45:00,70.1,68.6,29.99,NE,42,0.0,0.0,95,0.00,,,0.00,0,Wunderground v.1.15,2013-08-21 14:45:00,
2013-08-21 04:50:00,70.2,68.7,29.99,NE,42,0.0,0.0,95,0.00,,,0.00,0,Wunderground v.1.15,2013-08-21 14:50:00,
2013-08-21 04:55:00,70.3,68.8,29.99,NE,42,0.0,0.0,95,0.00,,,0.00,0,Wunderground v.1.15,2013-08-21 14:55:00,
2013-08-21 05:00:00,70.4,68.6,29.99,NE,42,0.0,0.0,94,0.00,,,0.00,0,Wunderground v.1.15,2013-08-21 15:00:00,
2013-08-21 05:10:00,70.5,68.7,29.99,NE,42,0.0,0.0,94,0.00,,,0.00,0,Wunderground v.1.15,2013-08-21 15:10:00,
2013-08-21 05:15:00,70.6,68.8,29.99,NE,42,0.0,0.0,94,0.00,,,0.00,0,Wunderground v.1.15,2013-08-21 15:15:00,
2013-08-21 05:20:00,70.6,68.8,29.99,NE,42,0.0,0.0,94,0.00,,,0.00,0,Wunderground v.1.15,2013-08-21 15:20:00,
2013-08-21 05:25:00,70.3,68.2,29.99,NE,36,0.0,3.0,93,0.00,,,0.00,0,Wunderground v.1.15,2013-08-21 15:25:00,
2013-08-21 05:30:00,70.3,68.2,29.99,NE,36,2.0,2.0,93,0.00,,,0.00,0,Wunderground v.1.15,2013-08-21 15:30:00,
2013-08-21 05:40:00,70.3,68.2,29.99,NE,36,2.0,5.0,93,0.00,,,0.00,0,Wunderground v.1.15,2013-08-21 15:40:00,
2013-08-21 05:50:00,70.1,67.7,29.99,NNE,15,2.0,2.0,92,0.00,,,0.00,0,Wunderground v.1.15,2013-08-21 15:50:00,
2013-08-21 05:55:00,70.2,67.8,30.00,NNE,15,2.0,2.0,92,0.00,,,0.00,0,Wunderground v.1.15,2013-08-21 15:55:00,
2013-08-21 06:00:00,70.2,67.8,30.00,NNE,15,1.0,2.0,92,0.00,,,0.00,0,Wunderground v.1.15,2013-08-21 16:00:00,
2013-08-21 06:10:00,70.4,67.3,30.00,NNE,15,2.0,2.0,90,0.00,,,0.00,5,Wunderground v.1.15,2013-08-21 16:10:00,
2013-08-21 06:15:00,70.5,67.7,30.00,NNE,15,0.0,2.0,91,0.00,,,0.00,11,Wunderground v.1.15,2013-08-21 16:15:00,
2013-08-21 06:20:00,70.4,67.6,30.00,NNE,15,0.0,0.0,91,0.00,,,0.00,18,Wunderground v.1.15,2013-08-21 16:20:00,
2013-08-21 06:25:00,70.3,67.5,30.00,NNE,15,0.0,0.0,91,0.00,,,0.00,23,Wunderground v.1.15,2013-08-21 16:25:00,
2013-08-21 06:30:00,70.3,67.5,30.01,NNE,15,0.0,0.0,91,0.00,,,0.00,32,Wunderground v.1.15,2013-08-21 16:30:00,
2013-08-21 06:35:00,70.3,67.2,30.01,NNE,15,1.0,2.0,90,0.00,,,0.00,42,Wunderground v.1.15,2013-08-21 16:35:00,
2013-08-21 06:45:00,70.8,67.4,30.01,NNE,15,1.0,1.0,89,0.00,,,0.00,69,Wunderground v.1.15,2013-08-21 16:45:00,
2013-08-21 06:50:00,70.8,67.7,30.01,NNW,345,2.0,5.0,90,0.00,,,0.00,79,Wunderground v.1.15,2013-08-21 16:50:00,
2013-08-21 06:55:00,70.9,67.5,30.01,NNW,344,3.0,5.0,89,0.00,,,0.00,98,Wunderground v.1.15,2013-08-21 16:55:00,
2013-08-21 07:00:00,71.2,67.5,30.01,NNW,344,1.0,1.0,88,0.00,,,0.00,111,Wunderground v.1.15,2013-08-21 17:00:00,
2013-08-21 07:10:00,71.8,68.1,30.02,NNW,344,1.0,1.0,88,0.00,,,0.00,151,Wunderground v.1.15,2013-08-21 17:10:00,
2013-08-21 07:15:00,72.1,68.3,30.02,NNW,344,0.0,1.0,88,0.00,,,0.00,171,Wunderground v.1.15,2013-08-21 17:15:00,
2013-08-21 07:20:00,72.5,68.7,30.02,NNW,344,0.0,2.0,88,0.00,,,0.00,188,Wunderground v.1.15,2013-08-21 17:20:00,
2013-08-21 07:25:00,73.0,68.9,30.01,NNW,344,1.0,2.0,87,0.00,,,0.00,211,Wunderground v.1.15,2013-08-21 17:25:00,
2013-08-21 07:30:00,73.6,69.2,30.02,NNW,344,2.0,2.0,86,0.00,,,0.00,227,Wunderground v.1.15,2013-08-21 17:30:00,
2013-08-21 07:40:00,75.1,69.2,30.02,North,355,2.0,2.0,82,0.00,,,0.00,267,Wunderground v.1.15,2013-08-21 17:40:00,
2013-08-21 07:45:00,75.8,69.6,30.02,North,5,3.0,3.0,81,0.00,,,0.00,287,Wunderground v.1.15,2013-08-21 17:45:00,
2013-08-21 07:50:00,76.3,69.3,30.02,North,9,2.0,2.0,79,0.00,,,0.00,306,Wunderground v.1.15,2013-08-21 17:50:00,
2013-08-21 07:55:00,76.7,68.9,30.02,NNE,15,3.0,3.0,77,0.00,,,0.00,320,Wunderground v.1.15,2013-08-21 17:55:00,
2013-08-21 08:00:00,77.2,69.0,30.02,North,350,3.0,3.0,76,0.00,,,0.00,348,Wunderground v.1.15,2013-08-21 18:00:00,
2013-08-21 08:10:00,77.9,69.3,30.02,NNE,21,2.0,4.0,75,0.00,,,0.00,385,Wunderground v.1.15,2013-08-21 18:10:00,
2013-08-21 08:15:00,78.1,69.5,30.02,North,5,3.0,5.0,75,0.00,,,0.00,408,Wunderground v.1.15,2013-08-21 18:15:00,
2013-08-21 08:20:00,78.4,69.8,30.02,NE,46,2.0,5.0,75,0.00,,,0.00,431,Wunderground v.1.15,2013-08-21 18:20:00,
2013-08-21 08:25:00,78.7,69.7,30.03,NNE,24,2.0,5.0,74,0.00,,,0.00,455,Wunderground v.1.15,2013-08-21 18:25:00,
2013-08-21 08:30:00,78.8,69.4,30.03,NNE,20,2.0,2.0,73,0.00,,,0.00,471,Wunderground v.1.15,2013-08-21 18:30:00,
2013-08-21 08:35:00,79.1,69.7,30.03,ENE,78,1.0,2.0,73,0.00,,,0.00,483,Wunderground v.1.15,2013-08-21 18:35:00,
2013-08-21 08:45:00,79.6,69.8,30.03,North,350,1.0,1.0,72,0.00,,,0.00,531,Wunderground v.1.15,2013-08-21 18:45:00,
2013-08-21 08:50:00,79.8,69.6,30.03,North,355,1.0,1.0,71,0.00,,,0.00,134,Wunderground v.1.15,2013-08-21 18:50:00,
2013-08-21 08:55:00,79.7,69.9,30.03,North,355,0.0,2.0,72,0.00,,,0.00,615,Wunderground v.1.15,2013-08-21 18:55:00,
2013-08-21 09:00:00,80.0,70.6,30.03,ESE,122,1.0,6.0,73,0.00,,,0.00,635,Wunderground v.1.15,2013-08-21 19:00:00,
2013-08-21 09:10:00,80.5,70.6,30.03,SE,132,2.0,2.0,72,0.00,,,0.00,629,Wunderground v.1.15,2013-08-21 19:10:00,
2013-08-21 09:15:00,80.8,70.5,30.03,East,99,2.0,3.0,71,0.00,,,0.00,633,Wunderground v.1.15,2013-08-21 19:15:00,
2013-08-21 09:20:00,81.1,70.8,30.03,NE,46,2.0,3.0,71,0.00,,,0.00,657,Wunderground v.1.15,2013-08-21 19:20:00,
2013-08-21 09:30:00,80.9,70.2,30.03,ENE,69,1.0,1.0,70,0.00,,,0.00,686,Wunderground v.1.15,2013-08-21 19:30:00,
2013-08-21 09:35:00,80.8,70.1,30.03,NNE,32,1.0,1.0,70,0.00,,,0.00,696,Wunderground v.1.15,2013-08-21 19:35:00,
2013-08-21 09:40:00,81.2,70.5,30.02,NNE,33,1.0,1.0,70,0.00,,,0.00,722,Wunderground v.1.15,2013-08-21 19:40:00,
2013-08-21 09:45:00,81.8,70.6,30.02,SE,125,1.0,5.0,69,0.00,,,0.00,731,Wunderground v.1.15,2013-08-21 19:45:00,
2013-08-21 09:50:00,81.9,70.7,30.02,SE,125,1.0,1.0,69,0.00,,,0.00,768,Wunderground v.1.15,2013-08-21 19:50:00,
2013-08-21 09:55:00,82.2,71.0,30.02,NE,34,1.0,1.0,69,0.00,,,0.00,810,Wunderground v.1.15,2013-08-21 19:55:00,
2013-08-21 10:00:00,82.4,71.2,30.02,NE,34,0.0,0.0,69,0.00,,,0.00,824,Wunderground v.1.15,2013-08-21 20:00:00,
2013-08-21 10:10:00,83.3,71.6,30.02,SE,142,3.0,3.0,68,0.00,,,0.00,847,Wunderground v.1.15,2013-08-21 20:10:00,
2013-08-21 10:15:00,82.9,71.7,30.01,ESE,123,4.0,5.0,69,0.00,,,0.00,861,Wunderground v.1.15,2013-08-21 20:15:00,
2013-08-21 10:20:00,82.1,71.8,30.01,SE,142,6.0,10.0,71,0.00,,,0.00,847,Wunderground v.1.15,2013-08-21 20:20:00,
2013-08-21 10:30:00,81.6,72.5,30.01,ESE,113,6.0,6.0,74,0.00,,,0.00,846,Wunderground v.1.15,2013-08-21 20:30:00,
2013-08-21 10:35:00,81.6,72.5,30.01,SE,144,5.0,6.0,74,0.00,,,0.00,853,Wunderground v.1.15,2013-08-21 20:35:00,
2013-08-21 10:40:00,81.2,72.1,30.01,SE,128,5.0,5.0,74,0.00,,,0.00,867,Wunderground v.1.15,2013-08-21 20:40:00,
2013-08-21 10:45:00,81.4,72.7,30.01,East,98,4.0,5.0,75,0.00,,,0.00,870,Wunderground v.1.15,2013-08-21 20:45:00,
2013-08-21 10:50:00,81.9,72.4,30.01,SE,133,3.0,3.0,73,0.00,,,0.00,886,Wunderground v.1.15,2013-08-21 20:50:00,
2013-08-21 10:55:00,81.9,72.8,30.01,South,174,4.0,6.0,74,0.00,,,0.00,886,Wunderground v.1.15,2013-08-21 20:55:00,
2013-08-21 11:00:00,81.4,72.7,30.01,SE,145,6.0,7.0,75,0.00,,,0.00,900,Wunderground v.1.15,2013-08-21 21:00:00,
2013-08-21 11:10:00,81.9,74.0,30.01,ESE,122,5.0,8.0,77,0.00,,,0.00,912,Wunderground v.1.15,2013-08-21 21:10:00,
2013-08-21 11:15:00,81.7,73.8,30.01,SSE,157,6.0,8.0,77,0.00,,,0.00,930,Wunderground v.1.15,2013-08-21 21:15:00,
2013-08-21 11:25:00,80.9,74.1,30.01,SSE,155,5.0,10.0,80,0.00,,,0.00,951,Wunderground v.1.15,2013-08-21 21:25:00,
2013-08-21 11:30:00,80.6,73.9,30.01,ESE,117,5.0,6.0,80,0.00,,,0.00,963,Wunderground v.1.15,2013-08-21 21:30:00,
2013-08-21 11:35:00,80.2,74.2,30.01,SSE,167,6.0,6.0,82,0.00,,,0.00,378,Wunderground v.1.15,2013-08-21 21:35:00,
2013-08-21 11:40:00,79.9,75.0,30.01,South,188,6.0,6.0,85,0.00,,,0.00,425,Wunderground v.1.15,2013-08-21 21:40:00,
2013-08-21 11:45:00,80.3,75.4,30.01,ESE,117,6.0,6.0,85,0.00,,,0.00,1202,Wunderground v.1.15,2013-08-21 21:45:00,
2013-08-21 11:55:00,80.7,74.7,30.00,ESE,109,4.0,5.0,82,0.00,,,0.00,1157,Wunderground v.1.15,2013-08-21 21:55:00,
2013-08-21 12:00:00,80.4,74.8,30.00,SE,130,6.0,6.0,83,0.00,,,0.00,570,Wunderground v.1.15,2013-08-21 22:00:00,
2013-08-21 12:10:00,80.5,75.2,30.00,ESE,115,7.0,12.0,84,0.00,,,0.00,1197,Wunderground v.1.15,2013-08-21 22:10:00,
2013-08-21 12:15:00,80.3,75.0,30.00,SSE,153,7.0,12.0,84,0.00,,,0.00,940,Wunderground v.1.15,2013-08-21 22:15:00,
2013-08-21 12:25:00,79.8,74.9,29.99,SE,138,7.0,8.0,85,0.00,,,0.00,536,Wunderground v.1.15,2013-08-21 22:25:00,
2013-08-21 12:30:00,79.7,75.1,29.99,SE,143,6.0,9.0,86,0.00,,,0.00,429,Wunderground v.1.15,2013-08-21 22:30:00,
2013-08-21 12:35:00,79.9,75.3,29.99,SSE,148,6.0,13.0,86,0.00,,,0.00,429,Wunderground v.1.15,2013-08-21 22:35:00,
2013-08-21 12:40:00,79.8,75.2,29.99,ENE,67,7.0,7.0,86,0.00,,,0.00,504,Wunderground v.1.15,2013-08-21 22:40:00,
2013-08-21 12:45:00,79.9,74.6,29.98,ESE,113,6.0,7.0,84,0.00,,,0.00,601,Wunderground v.1.15,2013-08-21 22:45:00,
2013-08-21 12:55:00,79.7,73.7,29.98,SSE,163,7.0,10.0,82,0.00,,,0.00,506,Wunderground v.1.15,2013-08-21 22:55:00,
2013-08-21 13:00:00,79.8,73.8,29.98,SSE,148,7.0,7.0,82,0.00,,,0.00,457,Wunderground v.1.15,2013-08-21 23:00:00,
2013-08-21 13:10:00,80.0,74.7,29.98,SE,133,6.0,6.0,84,0.00,,,0.00,380,Wunderground v.1.15,2013-08-21 23:10:00,
2013-08-21 13:15:00,79.9,75.0,29.98,ENE,66,7.0,7.0,85,0.00,,,0.00,682,Wunderground v.1.15,2013-08-21 23:15:00,
2013-08-21 13:20:00,79.4,74.8,29.98,SE,126,7.0,7.0,86,0.00,,,0.00,288,Wunderground v.1.15,2013-08-21 23:20:00,
2013-08-21 13:25:00,78.9,74.4,29.97,SSE,151,7.0,7.0,86,0.00,,,0.00,260,Wunderground v.1.15,2013-08-21 23:25:00,
2013-08-21 13:30:00,78.7,74.5,29.97,SE,146,6.0,6.0,87,0.00,,,0.00,399,Wunderground v.1.15,2013-08-21 23:30:00,
2013-08-21 13:35:00,79.0,74.5,29.97,SE,139,5.0,6.0,86,0.00,,,0.00,397,Wunderground v.1.15,2013-08-21 23:35:00,
2013-08-21 13:45:00,78.6,74.4,29.97,SE,130,6.0,9.0,87,0.00,,,0.00,294,Wunderground v.1.15,2013-08-21 23:45:00,
2013-08-21 13:50:00,78.4,74.2,29.97,SSE,165,6.0,6.0,87,0.00,,,0.00,309,Wunderground v.1.15,2013-08-21 23:50:00,
2013-08-21 13:55:00,78.2,74.0,29.97,SE,135,5.0,6.0,87,0.00,,,0.00,250,Wunderground v.1.15,2013-08-21 23:55:00,
2013-08-21 14:00:00,78.1,74.3,29.97,SE,138,5.0,5.0,88,0.00,,,0.00,234,Wunderground v.1.15,2013-08-22 00:00:00,
2013-08-21 14:10:00,78.0,74.2,29.97,SE,143,5.0,5.0,88,0.00,,,0.00,253,Wunderground v.1.15,2013-08-22 00:10:00,
2013-08-21 14:15:00,77.9,74.4,29.97,SSE,162,4.0,9.0,89,0.00,,,0.00,202,Wunderground v.1.15,2013-08-22 00:15:00,
2013-08-21 14:20:00,77.5,74.0,29.96,SSE,161,6.0,6.0,89,0.00,,,0.00,178,Wunderground v.1.15,2013-08-22 00:20:00,
2013-08-21 14:25:00,77.4,74.2,29.97,SE,146,6.0,6.0,90,0.00,,,0.00,153,Wunderground v.1.15,2013-08-22 00:25:00,
2013-08-21 14:30:00,77.2,74.0,29.97,East,79,5.0,7.0,90,0.00,,,0.00,172,Wunderground v.1.15,2013-08-22 00:30:00,
2013-08-21 14:35:00,77.1,73.6,29.96,SE,140,4.0,7.0,89,0.00,,,0.00,214,Wunderground v.1.15,2013-08-22 00:35:00,
2013-08-21 14:45:00,77.0,73.5,29.96,SE,142,4.0,8.0,89,0.00,,,0.00,229,Wunderground v.1.15,2013-08-22 00:45:00,
2013-08-21 14:55:00,77.1,73.9,29.95,SE,126,5.0,6.0,90,0.00,,,0.00,141,Wunderground v.1.15,2013-08-22 00:55:00,
2013-08-21 15:00:00,77.0,74.2,29.95,SSE,150,4.0,4.0,91,0.00,,,0.00,130,Wunderground v.1.15,2013-08-22 01:00:00,
2013-08-21 15:10:00,76.7,74.2,29.95,East,98,5.0,5.0,92,0.00,,,0.00,118,Wunderground v.1.15,2013-08-22 01:10:00,
2013-08-21 15:15:00,76.5,74.0,29.95,SE,134,5.0,5.0,92,0.00,,,0.00,135,Wunderground v.1.15,2013-08-22 01:15:00,
2013-08-21 15:20:00,76.5,74.0,29.95,SE,136,5.0,10.0,92,0.00,,,0.00,121,Wunderground v.1.15,2013-08-22 01:20:00,
2013-08-21 15:25:00,76.6,74.1,29.95,ESE,110,6.0,10.0,92,0.00,,,0.00,137,Wunderground v.1.15,2013-08-22 01:25:00,
2013-08-21 15:30:00,76.8,74.0,29.95,ENE,74,5.0,5.0,91,0.00,,,0.00,176,Wunderground v.1.15,2013-08-22 01:30:00,
2013-08-21 15:35:00,76.7,74.2,29.95,ENE,75,5.0,5.0,92,0.00,,,0.00,139,Wunderground v.1.15,2013-08-22 01:35:00,
2013-08-21 15:45:00,76.5,74.0,29.95,East,89,5.0,5.0,92,0.00,,,0.00,86,Wunderground v.1.15,2013-08-22 01:45:00,
2013-08-21 15:50:00,76.5,74.0,29.95,NE,56,4.0,4.0,92,0.00,,,0.00,81,Wunderground v.1.15,2013-08-22 01:50:00,
2013-08-21 15:55:00,76.5,73.3,29.95,ENE,66,2.0,4.0,90,0.00,,,0.00,102,Wunderground v.1.15,2013-08-22 01:55:00,
2013-08-21 16:00:00,76.6,73.4,29.95,ENE,77,1.0,3.0,90,0.00,,,0.00,95,Wunderground v.1.15,2013-08-22 02:00:00,
2013-08-21 16:10:00,76.5,73.3,29.96,East,86,3.0,3.0,90,0.00,,,0.00,98,Wunderground v.1.15,2013-08-22 02:10:00,
2013-08-21 16:15:00,76.4,72.9,29.95,ESE,122,3.0,3.0,89,0.00,,,0.00,137,Wunderground v.1.15,2013-08-22 02:15:00,
2013-08-21 16:20:00,76.5,73.0,29.95,ESE,122,1.0,1.0,89,0.00,,,0.00,109,Wunderground v.1.15,2013-08-22 02:20:00,
2013-08-21 16:25:00,76.6,72.8,29.95,East,99,1.0,6.0,88,0.00,,,0.00,105,Wunderground v.1.15,2013-08-22 02:25:00,
2013-08-21 16:30:00,76.6,72.8,29.95,East,86,2.0,3.0,88,0.00,,,0.00,81,Wunderground v.1.15,2013-08-22 02:30:00,
2013-08-21 16:40:00,76.7,73.5,29.95,East,86,2.0,2.0,90,0.00,,,0.00,56,Wunderground v.1.15,2013-08-22 02:40:00,
2013-08-21 16:45:00,76.5,73.3,29.95,SE,135,3.0,4.0,90,0.00,,,0.00,49,Wunderground v.1.15,2013-08-22 02:45:00,
2013-08-21 16:50:00,76.3,73.1,29.95,East,88,2.0,3.0,90,0.00,,,0.00,54,Wunderground v.1.15,2013-08-22 02:50:00,
2013-08-21 16:55:00,76.2,72.7,29.95,ENE,78,2.0,3.0,89,0.00,,,0.00,62,Wunderground v.1.15,2013-08-22 02:55:00,
2013-08-21 17:00:00,76.1,73.0,29.95,ESE,115,2.0,4.0,90,0.00,,,0.00,65,Wunderground v.1.15,2013-08-22 03:00:00,
2013-08-21 17:10:00,76.0,72.5,29.96,East,99,3.0,3.0,89,0.00,,,0.00,53,Wunderground v.1.15,2013-08-22 03:10:00,
2013-08-21 17:15:00,76.0,72.5,29.96,NE,53,2.0,3.0,89,0.00,,,0.00,46,Wunderground v.1.15,2013-08-22 03:15:00,
2013-08-21 17:20:00,76.0,72.9,29.96,ENE,64,2.0,2.0,90,0.00,,,0.00,46,Wunderground v.1.15,2013-08-22 03:20:00,
2013-08-21 17:30:00,75.9,72.8,29.96,NE,41,1.0,1.0,90,0.00,,,0.00,33,Wunderground v.1.15,2013-08-22 03:30:00,
2013-08-21 17:40:00,75.8,73.0,29.96,NE,41,1.0,1.0,91,0.00,,,0.00,28,Wunderground v.1.15,2013-08-22 03:40:00,
2013-08-21 17:45:00,75.6,73.1,29.96,NE,41,1.0,3.0,92,0.00,,,0.00,23,Wunderground v.1.15,2013-08-22 03:45:00,
2013-08-21 17:50:00,75.1,72.6,29.96,NNE,30,1.0,2.0,92,0.00,,,0.00,16,Wunderground v.1.15,2013-08-22 03:50:00,
2013-08-21 17:55:00,74.6,72.4,29.96,NNW,333,2.0,3.0,93,0.00,,,0.00,14,Wunderground v.1.15,2013-08-22 03:55:00,
2013-08-21 18:00:00,73.9,72.4,29.97,NNW,329,3.0,3.0,95,0.00,,,0.00,11,Wunderground v.1.15,2013-08-22 04:00:00,
2013-08-21 18:05:00,73.5,72.3,29.96,NNW,329,3.0,5.0,96,0.00,,,0.01,11,Wunderground v.1.15,2013-08-22 04:05:00,
2013-08-21 18:10:00,73.3,72.4,29.96,NNW,329,2.0,2.0,97,0.00,,,0.01,9,Wunderground v.1.15,2013-08-22 04:10:00,
2013-08-21 18:15:00,73.1,72.2,29.97,NNW,329,1.0,2.0,97,0.04,,,0.02,5,Wunderground v.1.15,2013-08-22 04:15:00,
2013-08-21 18:20:00,72.9,72.3,29.97,NNW,329,0.0,0.0,98,0.04,,,0.02,0,Wunderground v.1.15,2013-08-22 04:20:00,
2013-08-21 18:25:00,72.8,72.2,29.97,NNW,329,0.0,0.0,98,0.04,,,0.02,0,Wunderground v.1.15,2013-08-22 04:25:00,
2013-08-21 18:30:00,72.7,72.1,29.97,NNW,329,0.0,0.0,98,0.04,,,0.02,0,Wunderground v.1.15,2013-08-22 04:30:00,
2013-08-21 18:35:00,72.7,72.1,29.97,NNW,329,0.0,0.0,98,0.00,,,0.02,0,Wunderground v.1.15,2013-08-22 04:35:00,
2013-08-21 18:40:00,72.7,72.4,29.97,NNW,329,0.0,0.0,99,0.00,,,0.02,0,Wunderground v.1.15,2013-08-22 04:40:00,
2013-08-21 18:45:00,72.8,72.5,29.97,NNW,329,0.0,0.0,99,0.00,,,0.02,0,Wunderground v.1.15,2013-08-22 04:45:00,
2013-08-21 18:50:00,72.8,72.5,29.97,NNW,329,0.0,0.0,99,0.00,,,0.02,0,Wunderground v.1.15,2013-08-22 04:50:00,
2013-08-21 18:55:00,72.8,72.5,29.98,NNW,329,0.0,0.0,99,0.00,,,0.02,0,Wunderground v.1.15,2013-08-22 04:55:00,
2013-08-21 19:00:00,72.8,72.5,29.98,NNW,329,0.0,0.0,99,0.00,,,0.02,0,Wunderground v.1.15,2013-08-22 05:00:00,
2013-08-21 19:10:00,72.6,72.6,29.98,NNW,329,1.0,3.0,100,0.14,,,0.03,0,Wunderground v.1.15,2013-08-22 05:10:00,
2013-08-21 19:20:00,72.5,72.5,29.98,NNW,329,2.0,2.0,100,0.07,,,0.04,0,Wunderground v.1.15,2013-08-22 05:20:00,
2013-08-21 19:25:00,72.3,72.3,29.98,NNW,329,2.0,2.0,100,0.09,,,0.05,0,Wunderground v.1.15,2013-08-22 05:25:00,
2013-08-21 19:30:00,72.2,72.2,29.98,NNW,329,2.0,2.0,100,0.07,,,0.05,0,Wunderground v.1.15,2013-08-22 05:30:00,
2013-08-21 19:35:00,72.1,72.1,29.99,NNW,330,1.0,2.0,100,0.04,,,0.05,0,Wunderground v.1.15,2013-08-22 05:35:00,
2013-08-21 19:40:00,72.1,72.1,29.99,NNW,330,0.0,0.0,100,0.00,,,0.06,0,Wunderground v.1.15,2013-08-22 05:40:00,
2013-08-21 19:45:00,72.0,72.0,29.99,NNW,346,0.0,2.0,100,0.11,,,0.06,0,Wunderground v.1.15,2013-08-22 05:45:00,
2013-08-21 19:55:00,71.9,71.9,29.99,NNW,348,2.0,3.0,100,0.06,,,0.06,0,Wunderground v.1.15,2013-08-22 05:55:00,
2013-08-21 20:00:00,71.8,71.8,30.00,NNW,348,3.0,3.0,100,0.04,,,0.06,0,Wunderground v.1.15,2013-08-22 06:00:00,
2013-08-21 20:10:00,71.8,71.8,30.00,NNW,348,1.0,1.0,100,0.00,,,0.06,0,Wunderground v.1.15,2013-08-22 06:10:00,
2013-08-21 20:15:00,71.7,71.7,30.01,NNW,348,1.0,3.0,100,0.00,,,0.06,0,Wunderground v.1.15,2013-08-22 06:15:00,
2013-08-21 20:25:00,71.5,71.5,30.01,NNW,347,1.0,4.0,100,0.00,,,0.06,0,Wunderground v.1.15,2013-08-22 06:25:00,
2013-08-21 20:30:00,71.3,71.3,30.01,NNW,347,2.0,4.0,100,0.00,,,0.06,0,Wunderground v.1.15,2013-08-22 06:30:00,
2013-08-21 20:35:00,71.2,71.2,30.01,NNW,347,3.0,4.0,100,0.00,,,0.06,0,Wunderground v.1.15,2013-08-22 06:35:00,
2013-08-21 20:40:00,71.1,71.1,30.01,NNW,330,3.0,3.0,100,0.00,,,0.06,0,Wunderground v.1.15,2013-08-22 06:40:00,
2013-08-21 20:45:00,71.1,71.1,30.01,NNW,330,3.0,3.0,100,0.00,,,0.06,0,Wunderground v.1.15,2013-08-22 06:45:00,
2013-08-21 20:50:00,71.0,71.0,30.01,NNW,330,3.0,3.0,100,0.00,,,0.06,0,Wunderground v.1.15,2013-08-22 06:50:00,
2013-08-21 21:00:00,71.1,71.1,30.01,NNW,330,0.0,0.0,100,0.00,,,0.06,0,Wunderground v.1.15,2013-08-22 07:00:00,
2013-08-21 21:10:00,71.3,71.3,30.02,NNW,332,1.0,1.0,100,0.00,,,0.06,0,Wunderground v.1.15,2013-08-22 07:10:00,
2013-08-21 21:20:00,71.3,71.3,30.02,NNW,333,0.0,0.0,100,0.00,,,0.06,0,Wunderground v.1.15,2013-08-22 07:20:00,
2013-08-21 21:25:00,71.3,71.3,30.02,NNW,333,0.0,0.0,100,0.00,,,0.06,0,Wunderground v.1.15,2013-08-22 07:25:00,
2013-08-21 21:30:00,71.4,71.4,30.02,NNW,333,1.0,2.0,100,0.00,,,0.06,0,Wunderground v.1.15,2013-08-22 07:30:00,
2013-08-21 21:35:00,71.4,71.4,30.03,NNW,333,2.0,2.0,100,0.00,,,0.06,0,Wunderground v.1.15,2013-08-22 07:35:00,
2013-08-21 21:40:00,71.3,71.3,30.03,NNW,333,2.0,2.0,100,0.00,,,0.06,0,Wunderground v.1.15,2013-08-22 07:40:00,
2013-08-21 21:45:00,71.3,71.3,30.03,NNW,333,2.0,2.0,100,0.00,,,0.06,0,Wunderground v.1.15,2013-08-22 07:45:00,
2013-08-21 21:50:00,71.4,71.4,30.03,NNW,333,2.0,3.0,100,0.00,,,0.06,0,Wunderground v.1.15,2013-08-22 07:50:00,
2013-08-21 21:55:00,71.3,71.3,30.03,NNW,333,1.0,3.0,100,0.00,,,0.06,0,Wunderground v.1.15,2013-08-22 07:55:00,
2013-08-21 22:00:00,71.3,71.3,30.02,NNW,333,1.0,1.0,100,0.00,,,0.06,0,Wunderground v.1.15,2013-08-22 08:00:00,
2013-08-21 22:10:00,71.4,71.4,30.03,NNW,333,0.0,0.0,100,0.00,,,0.06,0,Wunderground v.1.15,2013-08-22 08:10:00,
2013-08-21 22:15:00,71.3,71.3,30.03,NNW,333,0.0,0.0,100,0.00,,,0.06,0,Wunderground v.1.15,2013-08-22 08:15:00,
2013-08-21 22:25:00,71.2,71.2,30.03,NNW,333,0.0,0.0,100,0.00,,,0.06,0,Wunderground v.1.15,2013-08-22 08:25:00,
2013-08-21 22:30:00,71.1,71.1,30.03,NNW,333,0.0,0.0,100,0.00,,,0.06,0,Wunderground v.1.15,2013-08-22 08:30:00,
2013-08-21 22:35:00,71.1,71.1,30.03,NNW,333,0.0,0.0,100,0.00,,,0.06,0,Wunderground v.1.15,2013-08-22 08:35:00,
2013-08-21 22:45:00,71.2,71.2,30.03,NNW,333,0.0,0.0,100,0.00,,,0.06,0,Wunderground v.1.15,2013-08-22 08:45:00,
2013-08-21 22:50:00,71.1,71.1,30.03,NNW,333,0.0,0.0,100,0.00,,,0.06,0,Wunderground v.1.15,2013-08-22 08:50:00,
2013-08-21 22:55:00,71.1,71.1,30.03,NNW,333,0.0,0.0,100,0.00,,,0.06,0,Wunderground v.1.15,2013-08-22 08:55:00,
2013-08-21 23:00:00,71.0,71.0,30.03,NNW,333,0.0,0.0,100,0.00,,,0.06,0,Wunderground v.1.15,2013-08-22 09:00:00,
2013-08-21 23:10:00,71.2,71.2,30.03,NNW,333,0.0,0.0,100,0.00,,,0.06,0,Wunderground v.1.15,2013-08-22 09:10:00,
2013-08-21 23:15:00,71.2,71.2,30.03,NNW,333,0.0,0.0,100,0.00,,,0.06,0,Wunderground v.1.15,2013-08-22 09:15:00,
2013-08-21 23:20:00,71.2,71.2,30.03,NNW,333,0.0,0.0,100,0.00,,,0.06,0,Wunderground v.1.15,2013-08-22 09:20:00,
2013-08-21 23:30:00,71.2,71.2,30.03,NNW,333,1.0,2.0,100,0.00,,,0.06,0,Wunderground v.1.15,2013-08-22 09:30:00,
2013-08-21 23:35:00,71.2,71.2,30.02,NNW,333,2.0,2.0,100,0.00,,,0.06,0,Wunderground v.1.15,2013-08-22 09:35:00,
2013-08-21 23:40:00,71.2,71.2,30.02,NNW,333,2.0,3.0,100,0.00,,,0.06,0,Wunderground v.1.15,2013-08-22 09:40:00,
2013-08-21 23:45:00,71.2,71.2,30.03,NNW,333,2.0,3.0,100,0.00,,,0.06,0,Wunderground v.1.15,2013-08-22 09:45:00,
2013-08-21 23:50:00,71.2,71.2,30.03,NNW,333,1.0,1.0,100,0.00,,,0.06,0,Wunderground v.1.15,2013-08-22 09:50:00,
2013-08-21 23:55:00,71.2,71.2,30.02,NNW,333,1.0,1.0,100,0.00,,,0.00,0,Wunderground v.1.15,2013-08-22 09:55:00,